Location: Unspecified
(0.0000°N, 0.0000°E)
Time: 15:59:36
(UTC+00:00)

X-37B - Pass Details

Date: 24 September 2020
Orbit: 386 x 387 km, 45.0° (Epoch: 18 September)

Event Time Altitude Azimuth Distance (km) Brightness Sun altitude
Rises 18:44:54 0° 203° (SSW) 2,259 4.8 -13.3°
Reaches altitude 10° 18:47:14 10° 188° (S) 1,404 3.5 -13.9°
Maximum altitude 18:49:50 23° 133° (SE) 860 1.9 -14.5°
Enters shadow 18:49:53 23° 131° (SE) 860 1.9 -14.5°
